Location: Quesnel
(52.9830°N, 122.4830°W)
Time: 22:00:10
(UTC-07:00)

ISS - All Passes

Search period start: 22 May 2017 00:00
Search period end: 01 June 2017 00:00
Orbit: 402 x 409 km, 51.6° (Epoch: 23 May)

Date Brightness Start Highest point End Pass type
(mag) Time Alt. Az. Time Alt. Az. Time Alt. Az.
22 May - 00:46:31 10° WSW 00:49:41 47° SSE 00:52:53 10° E visible
22 May - 02:22:46 10° W 02:26:02 71° S 02:29:19 10° E visible
22 May - 03:59:15 10° W 04:02:21 39° SSW 04:05:26 10° SE visible
22 May - 05:36:58 10° WSW 05:38:11 12° SW 05:39:24 10° SSW daylight
22 May - 23:54:43 10° SW 23:57:46 35° SSE 00:00:49 10° E visible
23 May - 01:30:46 10° W 01:34:03 70° S 01:37:19 10° E visible
23 May - 03:07:12 10° W 03:10:25 51° SSW 03:13:36 10° ESE visible
23 May - 04:44:09 10° W 04:46:25 17° SW 04:48:41 10° S daylight
23 May - 23:03:06 10° SSW 23:05:53 25° SSE 23:08:40 10° E visible
24 May - 00:38:46 10° WSW 00:42:03 63° S 00:45:18 10° E visible
24 May - 02:15:10 10° W 02:18:26 62° S 02:21:41 10° ESE visible
24 May - 03:51:49 10° W 03:54:35 25° SSW 03:57:20 10° SSE visible
24 May - 22:11:43 10° S 22:14:02 18° SE 22:16:21 10° E visible
24 May - 23:46:50 10° WSW 23:50:03 51° SSE 23:53:16 10° E visible
25 May - 01:23:07 10° W 01:26:25 69° S 01:29:42 10° E visible
25 May - 02:59:38 10° W 03:02:41 35° SSW 03:05:42 10° SE visible
25 May - 21:20:55 10° SSE 21:22:14 12° SE 21:23:32 10° ESE daylight
25 May - 22:54:58 10° SW 22:58:04 39° SSE 23:01:11 10° E visible
26 May - 00:31:05 10° W 00:34:23 71° S 00:37:40 10° E visible
26 May - 02:07:33 10° W 02:10:43 46° SSW 02:13:53 10° ESE visible
26 May - 03:44:41 10° WSW 03:46:39 15° SW 03:48:38 10° S visible
26 May - 22:03:13 10° SW 22:06:08 29° SSE 22:09:03 10° E visible
26 May - 23:39:03 10° WSW 23:42:20 66° S 23:45:37 10° E visible
27 May - 01:15:27 10° W 01:18:43 58° SSW 01:21:58 10° ESE visible
27 May - 02:52:11 10° W 02:54:49 22° SSW 02:57:25 10° SSE visible
27 May - 21:11:41 10° SSW 21:14:14 20° SSE 21:16:45 10° E daylight
27 May - 22:47:02 10° WSW 22:50:17 56° SSE 22:53:33 10° E visible
28 May - 00:23:23 10° W 00:26:40 67° S 00:29:56 10° ESE visible
28 May - 01:59:56 10° W 02:02:54 31° SSW 02:05:50 10° SE visible
28 May - 20:20:33 10° S 20:22:21 14° SE 20:24:10 10° ESE daylight
28 May - 21:55:06 10° SW 21:58:16 44° SSE 22:01:26 10° E daylight
28 May - 23:31:18 10° W 23:34:36 71° S 23:37:53 10° E visible
29 May - 01:07:46 10° W 01:10:55 42° SSW 01:14:02 10° SE visible
29 May - 02:45:12 10° WSW 02:46:47 13° SW 02:48:23 10° S visible
29 May - 21:03:16 10° SW 21:06:16 33° SSE 21:09:16 10° E daylight
29 May - 22:39:13 10° WSW 22:42:31 68° S 22:45:48 10° E visible
30 May - 00:15:38 10° W 00:18:53 54° SSW 00:22:06 10° ESE visible
30 May - 01:52:29 10° W 01:54:55 19° SSW 01:57:21 10° SSE visible
30 May - 20:11:36 10° SSW 20:14:18 23° SSE 20:17:00 10° E daylight
30 May - 21:47:09 10° WSW 21:50:25 60° SSE 21:53:41 10° E daylight
30 May - 23:23:31 10° W 23:26:48 65° S 23:30:04 10° ESE visible
31 May - 01:00:07 10° W 01:02:59 27° SSW 01:05:50 10° SSE visible
31 May - 19:20:14 10° S 19:22:22 16° SE 19:24:31 10° ESE daylight
31 May - 20:55:09 10° WSW 20:58:21 48° SSE 21:01:33 10° E daylight
31 May - 22:31:24 10° W 22:34:42 70° S 22:37:59 10° E visible
